Regional Weather Roundup
Issued by NWS

Home | Current Version | Previous Version | Graphics & Text | Print | Product List | Glossary On
Versions: 1 2 3 4 5 6 7 8 9 10 11 12 13 14 15 16 17 18 19 20 21 22 23 24 25 26 27 28 29 30 31 32 33 34 35 36 37 38 39 40 41 42 43 44 45 46 47 48 49 50
000
ASUS43 KDTX 210310
RWRMI
MICHIGAN HOURLY REGIONAL WEATHER ROUNDUP
NATIONAL WEATHER SERVICE DETROIT/PONTIAC MI
1100 PM EDT FRI OCT 20 2017

NOTE: "FAIR" INDICATES FEW OR NO CLOUDS BELOW 12,000 FEET WITH NO
SIGNIFICANT WEATHER AND/OR OBSTRUCTION TO VISIBILITY.

MIZ047>049-052>055-059>063-066>070-074>076-081>083-210400-
SOUTHEAST LOWER MICHIGAN

CITY           SKY/WX    TMP DP  RH WIND       PRES   REMARKS
ADRIAN         CLEAR     59  50  72 S6        30.16S
ALMA           CLEAR     61  49  65 S6        30.11S
ANN ARBOR      CLEAR     47  46  97 CALM      30.15R
BAD AXE        CLEAR     56  44  65 S7        30.13S
CARO           CLEAR     58  47  65 S7        30.12R
DETROIT CITY   CLEAR     57  49  74 S6        30.16S
DETROIT        MOCLDY    59  50  72 S7        30.16S
FLINT          CLOUDY    58  47  66 S7        30.13S
GROSSE ILE     CLEAR     59  55  88 S6        30.15S
HILLSDALE      CLEAR     59  50  72 S5        30.15R
HOWELL         CLEAR     57  48  73 CALM      30.14S

CITY           SKY/WX    TMP DP  RH WIND       PRES   REMARKS
JACKSON        CLEAR     53  48  83 SE5       30.15R
LAMBERTVILLE   CLEAR     63  46  55 S3        30.16R
LANSING        CLEAR     61  50  67 S7        30.13R
LAPEER         FAIR      51  46  82 CALM      30.15R
MASON          CLEAR     61  51  69 S3        30.14R
MONROE         CLEAR     60  45  56 S6        30.15S
MT. CLEMENS    PTCLDY    55  50  83 S5        30.13F
PONTIAC        PTCLDY    54  46  74 CALM      30.14S
PORT HOPE        N/A     62  45  53 VRB6      30.10S
PORT HURON     CLEAR     48  45  87 CALM      30.16S
TRI CITIES     CLOUDY    61  52  72 S7        30.12R
MIDLAND        FAIR      61  51  69 CALM      30.10S
TROY           CLEAR     55  44  68 CALM      30.17S
SAGINAW HB     CLOUDY    61  50  67 S8        30.11S
$$
MIZ043>046-050>051-056>058-064>065-071>073-077>080-210400-
SOUTHWEST LOWER MICHIGAN

CITY           SKY/WX    TMP DP  RH WIND       PRES   REMARKS
BATTLE CREEK   CLEAR     62  52  69 S8        30.13S
BENTON HARBOR  CLOUDY    63  49  60 S6        30.09R
BIG RAPIDS     PTCLDY    55  47  75 SE3       30.08S
COLDWATER      CLEAR     53  50  89 S5        30.14S
FREMONT        FAIR      61  50  68 S5        30.07S
HOLLAND        CLEAR     58  50  75 S7        30.09S
GRAND RAPIDS   PTCLDY    61  52  72 S8        30.10S
IONIA          FAIR      57  50  77 CALM      30.10F
KALAMAZOO      PTCLDY    61  49  64 S6        30.12S
LUDINGTON      MOCLDY    65  50  58 S6        30.03S
MARSHALL       CLEAR     60  50  69 S3        30.13R
MOUNT PLEASANT CLEAR     64  51  62 CALM      30.09S
MUSKEGON       MOCLDY    60  50  69 SE9       30.07S
SOUTH HAVEN    CLOUDY    62  50  64 S3        30.08F
$$
MIZ016>042-210400-
NORTHERN LOWER MICHIGAN

CITY           SKY/WX    TMP DP  RH WIND       PRES   REMARKS
ALPENA         CLEAR     50  49  96 S6        30.06R
BEAVER ISLAND  CLEAR     66  51  59 SW13G22   29.99F
BELLAIRE       CLEAR     51  48  92 CALM      30.04R
CADILLAC       CLOUDY    60  47  62 SW6       30.08S
CHARLEVOIX     CLEAR     65  49  57 S10       30.04S
FRANKFORT      CLOUDY    66  51  58 SE8       30.02S
GAYLORD        CLEAR     60  46  59 SW9       30.06S
GRAYLING       CLEAR     54  45  72 SE3       30.08S
HARBOR SPRINGS CLEAR     62  47  58 S6        30.02S
HOUGHTON LAKE  PTCLDY    59  47  64 S6        30.09R
MANISTEE       CLOUDY    52  49  89 E5        30.03S
OSCODA         CLEAR     62  51  69 S9        30.08R
PELLSTON       CLEAR     67  49  52 SW12G20   30.02R
ROGERS CITY    CLEAR     63  50  62 SW6       30.04R
TRAVERSE CITY  PTCLDY    69  49  48 SW9G17    30.01S
$$
MIZ007>008-015-210400-
EASTERN UPPER MICHIGAN

CITY           SKY/WX    TMP DP  RH WIND       PRES   REMARKS
KINROSS        CLEAR     58  52  80 S3        30.01R
MACKINAC ISLAN CLEAR     61  50  65 SW7       30.01S
NEWBERRY       CLEAR     57  56  97 S13       29.98S
S. S. MARIE    CLEAR     56  51  84 VRB3      29.99S
MUNISING         N/A     59  53  80 S7        29.92S
$$
MIZ004>006-011>014-085-210400-
CENTRAL UPPER MICHIGAN

CITY           SKY/WX    TMP DP  RH WIND       PRES   REMARKS
MANISTIQUE     CLEAR     54  49  81 CALM      29.98S HAZE
ESCANABA       MOCLDY    58  54  86 S5        29.94S
MENOMINEE      CLOUDY    58  51  78 S3        29.95S
SAWYER-GWINN   CLOUDY    59  49  70 S8        29.93R
$$
MIZ001>003-009>011-084-210400-
WESTERN UPPER MICHIGAN

CITY           SKY/WX    TMP DP  RH WIND       PRES   REMARKS
IRON MOUNTAIN  CLOUDY    63  45  51 S7        29.91S
HOUGHTON       MOCLDY    65  42  43 S10       29.82R
COPPER HARBOR    N/A     65  45  48 SW10      29.80S
IRONWOOD       CLOUDY    66  43  43 S15G23    29.80R
$$

ABBREVIATIONS USED IN REMARKS
   TC - TEMPERATURE IN CELSIUS
  WCI - WIND CHILL INDEX
   HX - HEAT INDEX
  VSB - VISIBILITY




USA.gov is the U.S. government's official web portal to all federal, state and local government web resources and services.